Regional Weather Roundup
Issued by NWS

Home | Current Version | Previous Version | Graphics & Text | Print | Product List | Glossary On
Versions: 1 2 3 4 5 6 7 8 9 10 11 12 13 14 15 16 17 18 19 20 21 22 23 24 25 26 27 28
000
ASUS45 KSLC 230010
RWRUT

UTAH REGIONAL WEATHER ROUNDUP
NATIONAL WEATHER SERVICE SALT LAKE CITY UT
600 PM MDT FRI JUL 22 2016

UTZ001>011-023>025-230100-

NORTHERN UTAH

CITY           SKY/WX    TMP DP  RH WIND       PRES   REMARKS
BRIGHAM CITY     N/A     98  17   5 SW12G17   30.01F HX  91
HILL AFB       SUNNY     96  31  10 NW14      30.07F HX  90
LOGAN          SUNNY     96  28   9 S10G23    30.02F HX  90
OGDEN          SUNNY     97  30   9 W12       30.03F HX  91
PROVO AIRPORT  LGT RAIN N/A N/A N/A MISG      30.04F
SALT LAKE CITY MOSUNNY  100  31   9 N15       30.00F HX  94
VERNAL         CLOUDY    84  49  29 W6        30.18S
WENDOVER       SUNNY    100  36  10 W25       30.02S HX  95
HEBER CITY     PTSUNNY   88  36  15 S12G17    30.14F

$$

UTZ012>022-026-027-230100-

SOUTHERN/CENTRAL UTAH

CITY           SKY/WX    TMP DP  RH WIND       PRES   REMARKS
BLANDING       MOSUNNY   91  42  17 NW5       30.27F
BRYCE CANYON   MOSUNNY   79  42  26 S9        30.36F THUNDER
CEDAR CITY     SUNNY     96  39  13 SW13      30.15F HX  91
DELTA          MOSUNNY   99  32   9 W10       30.04S HX  93
MILFORD        MOSUNNY   99  36  11 S23G33    30.07F HX  93
MOAB/CYNLANDS  CLOUDY    90  42  18 S20G30    30.06F
PRICE          MOSUNNY   87  42  20 S14       30.20F
ST GEORGE      MOCLDY   108  43  11 W13G20    29.93F HX 102

$$

REGIONAL REPORTS     COLORADO/ARIZONA

CITY           SKY/WX    TMP DP  RH WIND       PRES   REMARKS
CRAIG, CO      CLOUDY    83  45  26 SW18G26   30.23S
GRAND JUNCTION CLOUDY    94  45  18 SE13      30.11F HX  90
RIFLE          RAIN      72  57  59 SE5       30.25R
MONTROSE       CLOUDY    83  49  30 E16G25    30.26F
CORTEZ         CLOUDY    87  50  27 MISG      30.22F
PAGE, AZ       PTSUNNY   99  43  14 NE15      30.04F HX  95
GRAND CANYON   CLOUDY    76  51  41 SE8G18    30.30R
KINGMAN        MOSUNNY  102  38  11 SW16G22   30.00F HX  96
FLAGSTAFF      CLOUDY    76  42  29 SW5       30.35F

$$

REGIONAL REPORTS    NEVADA/IDAHO/WYOMING

CITY           SKY/WX    TMP DP  RH WIND       PRES   REMARKS
LAS VEGAS, NV  MOSUNNY  111  29   6 SW13G20   29.81F HX 103
ELY            SUNNY     92  23   8 W12G18    30.20F
ELKO           SUNNY     92  12   5 W14G21    30.15F
POCATELLO, ID  MOSUNNY   90  33  13 SW16      30.08F
BURLEY         SUNNY     86  33  15 W12G18    30.07F
EVANSTON, WY   SUNNY     87  35  15 W15G25    30.26F
ROCK SPRINGS   CLOUDY    83  39  21 NW7       30.26F
KEMMERER         N/A     82  32  16 W14G22    30.27F

$$




USA.gov is the U.S. government's official web portal to all federal, state and local government web resources and services.